| time (UTC) | temp C | wind direction | speed KPH | gust KPH | rain 1hr cm | rain 24hr cm | rain mn cm | humidity % | barometer mb |
| 20260906113526 | 21 | 15 | 3.2 | 3.2 | 0.00 | 0.00 | 0.00 | 96 | 1013.6 |
| 20260906113022 | 21 | 69 | 3.2 | 3.2 | 0.00 | 0.00 | 0.00 | 95 | 1013.6 |
| 20260906112516 | 21 | 80 | 1.6 | 1.6 | 0.00 | 0.00 | 0.00 | 95 | 1013.6 |
| 20260906112013 | 21 | 79 | 4.8 | 4.8 | 0.00 | 0.00 | 0.00 | 95 | 1013.6 |
| 20260906111512 | 21 | 18 | 4.8 | 4.8 | 0.00 | 0.00 | 0.00 | 95 | 1013.4 |
| 20260906111008 | 21 | 34 | 1.6 | 1.6 | 0.00 | 0.00 | 0.00 | 95 | 1013.4 |
| 20260906110502 | 21 | 87 | 1.6 | 1.6 | 0.00 | 0.00 | 0.00 | 95 | 1013.2 |
| 20260906110000 | 21 | 87 | 0.0 | 1.6 | 0.00 | 0.00 | 0.00 | 95 | 1013.2 |
| 20260906105457 | 21 | 83 | 0.0 | 0.0 | 0.00 | 0.00 | 0.00 | 95 | 1013.5 |
| 20260906104953 | 21 | 83 | 1.6 | 3.2 | 0.00 | 0.00 | 0.00 | 94 | 1013.5 |
| 20260906104451 | 21 | 55 | 3.2 | 3.2 | 0.00 | 0.00 | 0.00 | 95 | 1013.3 |
| 20260906103950 | 21 | 35 | 3.2 | 4.8 | 0.00 | 0.00 | 0.00 | 94 | 1013.2 |
| 20260906103449 | 21 | 49 | 3.2 | 3.2 | 0.00 | 0.00 | 0.00 | 95 | 1013.1 |
| 20260906102944 | 21 | 50 | 1.6 | 3.2 | 0.00 | 0.00 | 0.00 | 95 | 1013.0 |
| 20260906102445 | 21 | 68 | 1.6 | 3.2 | 0.00 | 0.00 | 0.00 | 94 | 1012.8 |
| 20260906101944 | 21 | 69 | 0.0 | 1.6 | 0.00 | 0.00 | 0.00 | 94 | 1013.0 |
| 20260906101441 | 21 | 69 | 1.6 | 3.2 | 0.00 | 0.00 | 0.00 | 94 | 1013.0 |
| 20260906100941 | 21 | 47 | 3.2 | 3.2 | 0.00 | 0.00 | 0.00 | 94 | 1013.0 |
| 20260906100436 | 21 | 48 | 1.6 | 1.6 | 0.00 | 0.00 | 0.00 | 94 | 1013.0 |
| 20260906095936 | 21 | 50 | 3.2 | 3.2 | 0.00 | 0.00 | 0.00 | 94 | 1012.9 |
| 20260906095431 | 21 | 55 | 0.0 | 1.6 | 0.00 | 0.00 | 0.00 | 94 | 1012.7 |
| 20260906094926 | 21 | 56 | 1.6 | 1.6 | 0.00 | 0.00 | 0.00 | 93 | 1012.9 |
| 20260906094420 | 21 | 55 | 0.0 | 0.0 | 0.00 | 0.00 | 0.00 | 93 | 1012.6 |
| 20260906093916 | 21 | 55 | 1.6 | 3.2 | 0.00 | 0.00 | 0.00 | 92 | 1012.5 |
| 20260906093413 | 21 | 30 | 0.0 | 0.0 | 0.00 | 0.00 | 0.00 | 92 | 1012.7 |
| 20260906092912 | 21 | 33 | 3.2 | 3.2 | 0.00 | 0.00 | 0.00 | 92 | 1012.7 |
| 20260906092412 | 21 | 14 | 0.0 | 1.6 | 0.00 | 0.00 | 0.00 | 91 | 1012.5 |
| 20260906091908 | 21 | 14 | 1.6 | 3.2 | 0.00 | 0.00 | 0.00 | 91 | 1012.8 |
| 20260906091403 | 21 | 14 | 1.6 | 3.2 | 0.00 | 0.00 | 0.00 | 91 | 1012.6 |
| 20260906090900 | 21 | 14 | 3.2 | 3.2 | 0.00 | 0.00 | 0.00 | 91 | 1012.6 |
| 20260906090359 | 21 | 14 | 3.2 | 3.2 | 0.00 | 0.00 | 0.00 | 91 | 1012.9 |
| 20260906085854 | 21 | 14 | 1.6 | 1.6 | 0.00 | 0.00 | 0.00 | 91 | 1012.6 |
| 20260906085353 | 21 | 14 | 0.0 | 0.0 | 0.00 | 0.00 | 0.00 | 92 | 1012.7 |
| 20260906084848 | 21 | 14 | 3.2 | 3.2 | 0.00 | 0.00 | 0.00 | 92 | 1012.5 |
| 20260906084348 | 21 | 14 | 3.2 | 3.2 | 0.00 | 0.00 | 0.00 | 92 | 1012.5 |
| 20260906083842 | 21 | 14 | 3.2 | 3.2 | 0.00 | 0.00 | 0.00 | 93 | 1012.4 |
| 20260906083338 | 21 | 14 | 1.6 | 3.2 | 0.00 | 0.00 | 0.00 | 93 | 1012.4 |
| 20260906082838 | 21 | 14 | 0.0 | 0.0 | 0.00 | 0.00 | 0.00 | 93 | 1012.6 |
| 20260906082333 | 21 | 14 | 1.6 | 1.6 | 0.00 | 0.00 | 0.00 | 93 | 1012.5 |
| 20260906081829 | 21 | 14 | 3.2 | 1.6 | 0.00 | 0.00 | 0.00 | 93 | 1012.4 |
| 20260906081324 | 21 | 14 | 0.0 | 0.0 | 0.00 | 0.00 | 0.00 | 91 | 1012.4 |
| 20260906080820 | 22 | 14 | 0.0 | 0.0 | 0.00 | 0.00 | 0.00 | 91 | 1012.4 |
| 20260906080316 | 22 | 14 | 0.0 | 0.0 | 0.00 | 0.00 | 0.00 | 91 | 1012.3 |
| 20260906075816 | 22 | 14 | 0.0 | 0.0 | 0.00 | 0.00 | 0.00 | 90 | 1012.6 |
| 20260906075315 | 22 | 14 | 0.0 | 0.0 | 0.00 | 0.00 | 0.00 | 90 | 1012.2 |
| 20260906074811 | 22 | 14 | 1.6 | 3.2 | 0.00 | 0.00 | 0.00 | 89 | 1012.4 |
| 20260906074311 | 22 | 12 | 0.0 | 0.0 | 0.00 | 0.00 | 0.00 | 88 | 1012.6 |
| 20260906073810 | 22 | 12 | 0.0 | 0.0 | 0.00 | 0.00 | 0.00 | 89 | 1012.5 |
| 20260906073305 | 22 | 12 | 1.6 | 1.6 | 0.00 | 0.00 | 0.00 | 89 | 1012.6 |
| 20260906072801 | 22 | 12 | 0.0 | 0.0 | 0.00 | 0.00 | 0.00 | 87 | 1012.6 |
| 20260906072256 | 22 | 13 | 1.6 | 1.6 | 0.00 | 0.00 | 0.00 | 87 | 1012.6 |
| 20260906071752 | 22 | 12 | 0.0 | 0.0 | 0.00 | 0.00 | 0.00 | 87 | 1012.7 |
| 20260906071252 | 22 | 12 | 0.0 | 0.0 | 0.00 | 0.00 | 0.00 | 87 | 1012.9 |
| 20260906070749 | 23 | 12 | 1.6 | 1.6 | 0.00 | 0.00 | 0.00 | 85 | 1012.6 |
| 20260906070244 | 23 | 12 | 1.6 | 1.6 | 0.00 | 0.00 | 0.00 | 85 | 1012.9 |
| 20260906065744 | 23 | 12 | 3.2 | 1.6 | 0.00 | 0.00 | 0.00 | 85 | 1012.8 |
| 20260906065239 | 23 | 90 | 1.6 | 1.6 | 0.00 | 0.00 | 0.00 | 85 | 1013.0 |
| 20260906064735 | 23 | 90 | 0.0 | 0.0 | 0.00 | 0.00 | 0.00 | 85 | 1012.9 |
| 20260906064230 | 23 | 90 | 0.0 | 0.0 | 0.00 | 0.00 | 0.00 | 83 | 1012.9 |
| 20260906063725 | 23 | 90 | 0.0 | 0.0 | 0.00 | 0.00 | 0.00 | 82 | 1012.9 |
| 20260906063221 | 23 | 90 | 3.2 | 3.2 | 0.00 | 0.00 | 0.00 | 82 | 1012.8 |
| 20260906062716 | 23 | 90 | 3.2 | 4.8 | 0.00 | 0.00 | 0.00 | 82 | 1013.0 |
| 20260906062215 | 23 | 81 | 1.6 | 1.6 | 0.00 | 0.00 | 0.00 | 82 | 1013.0 |
| 20260906061711 | 23 | 75 | 1.6 | 1.6 | 0.00 | 0.00 | 0.00 | 82 | 1012.9 |
| 20260906061207 | 23 | 74 | 1.6 | 3.2 | 0.00 | 0.00 | 0.00 | 82 | 1013.0 |
| 20260906060702 | 23 | 83 | 1.6 | 4.8 | 0.00 | 0.00 | 0.00 | 82 | 1012.8 |
| 20260906060159 | 23 | 86 | 4.8 | 6.4 | 0.00 | 0.00 | 0.00 | 82 | 1012.7 |
| 20260906055655 | 23 | 93 | 3.2 | 6.4 | 0.00 | 0.00 | 0.00 | 83 | 1012.8 |
| 20260906055150 | 23 | 69 | 3.2 | 4.8 | 0.00 | 0.00 | 0.00 | 86 | 1012.8 |
| 20260906054645 | 23 | 79 | 1.6 | 1.6 | 0.00 | 0.00 | 0.00 | 86 | 1012.8 |
| 20260906054140 | 23 | 74 | 3.2 | 3.2 | 0.00 | 0.00 | 0.00 | 85 | 1012.9 |
| 20260906053637 | 23 | 87 | 3.2 | 3.2 | 0.00 | 0.00 | 0.00 | 87 | 1012.9 |
| 20260906053137 | 23 | 88 | 1.6 | 3.2 | 0.00 | 0.00 | 0.00 | 86 | 1013.0 |
| 20260906052633 | 23 | 88 | 1.6 | 3.2 | 0.00 | 0.00 | 0.00 | 86 | 1013.0 |
| 20260906052129 | 23 | 89 | 1.6 | 1.6 | 0.00 | 0.00 | 0.00 | 85 | 1013.2 |
| 20260906051626 | 23 | 89 | 1.6 | 1.6 | 0.00 | 0.00 | 0.00 | 86 | 1013.1 |
| 20260906051125 | 23 | 89 | 0.0 | 0.0 | 0.00 | 0.00 | 0.00 | 86 | 1013.1 |
| 20260906050621 | 23 | 89 | 1.6 | 1.6 | 0.00 | 0.00 | 0.00 | 87 | 1013.2 |
| 20260906050116 | 23 | 89 | 1.6 | 1.6 | 0.00 | 0.00 | 0.00 | 87 | 1013.2 |
| 20260906045614 | 23 | 55 | 1.6 | 1.6 | 0.00 | 0.00 | 0.00 | 89 | 1013.3 |
| 20260906045110 | 23 | 55 | 0.0 | 1.6 | 0.00 | 0.00 | 0.00 | 91 | 1013.5 |
| 20260906044606 | 23 | 55 | 0.0 | 0.0 | 0.00 | 0.00 | 0.00 | 90 | 1013.2 |
| 20260906044100 | 23 | 55 | 0.0 | 1.6 | 0.00 | 0.00 | 0.00 | 90 | 1013.5 |
| 20260906043557 | 24 | 55 | 0.0 | 0.0 | 0.00 | 0.00 | 0.00 | 89 | 1013.3 |
| 20260906043052 | 24 | 55 | 0.0 | 1.6 | 0.00 | 0.00 | 0.00 | 89 | 1013.3 |
| 20260906042551 | 24 | 54 | 1.6 | 1.6 | 0.00 | 0.00 | 0.00 | 90 | 1013.4 |
| 20260906042045 | 24 | 55 | 1.6 | 1.6 | 0.00 | 0.00 | 0.00 | 90 | 1013.2 |
| 20260906041542 | 24 | 342 | 0.0 | 3.2 | 0.00 | 0.00 | 0.00 | 90 | 1013.0 |
| 20260906041037 | 24 | 357 | 0.0 | 0.0 | 0.00 | 0.00 | 0.00 | 88 | 1013.5 |
| 20260906040532 | 24 | 357 | 1.6 | 1.6 | 0.00 | 0.00 | 0.00 | 89 | 1013.3 |
| 20260906040028 | 24 | 59 | 1.6 | 1.6 | 0.00 | 0.00 | 0.00 | 89 | 1013.2 |
| 20260906035522 | 24 | 41 | 3.2 | 3.2 | 0.00 | 0.00 | 0.00 | 92 | 1013.2 |
| 20260906035019 | 24 | 291 | 4.8 | 6.4 | 0.00 | 0.00 | 0.00 | 91 | 1013.1 |
| 20260906034518 | 24 | 74 | 0.0 | 1.6 | 0.00 | 0.00 | 0.00 | 92 | 1012.7 |
| 20260906034013 | 24 | 75 | 1.6 | 3.2 | 0.00 | 0.00 | 0.00 | 92 | 1012.6 |
| 20260906033508 | 24 | 70 | 1.6 | 3.2 | 0.00 | 0.00 | 0.00 | 92 | 1012.8 |
| 20260906033004 | 24 | 41 | 3.2 | 3.2 | 0.00 | 0.00 | 0.00 | 93 | 1012.4 |
| 20260906032500 | 24 | 93 | 0.0 | 0.0 | 0.00 | 0.00 | 0.00 | 93 | 1012.4 |
| 20260906031959 | 24 | 93 | 0.0 | 0.0 | 0.00 | 0.00 | 0.00 | 94 | 1012.2 |
| 20260906031456 | 23 | 93 | 0.0 | 0.0 | 0.00 | 0.00 | 0.00 | 94 | 1012.2 |
| 20260906030951 | 23 | 93 | 0.0 | 0.0 | 0.00 | 0.00 | 0.00 | 94 | 1012.2 |
| 20260906030445 | 23 | 75 | 3.2 | 4.8 | 0.00 | 0.00 | 0.00 | 93 | 1012.5 |
| 20260906025940 | 24 | 332 | 0.0 | 0.0 | 0.00 | 0.00 | 0.00 | 93 | 1012.3 |
| 20260906025439 | 24 | 332 | 0.0 | 0.0 | 0.00 | 0.00 | 0.00 | 92 | 1012.4 |
| 20260906024938 | 24 | 332 | 0.0 | 0.0 | 0.00 | 0.00 | 0.00 | 92 | 1012.4 |
| 20260906024439 | 24 | 332 | 0.0 | 0.0 | 0.00 | 0.00 | 0.00 | 91 | 1012.5 |
| 20260906023938 | 24 | 332 | 0.0 | 0.0 | 0.00 | 0.00 | 0.00 | 91 | 1012.5 |
| 20260906023435 | 24 | 331 | 0.0 | 0.0 | 0.00 | 0.00 | 0.00 | 91 | 1012.9 |
| 20260906022935 | 24 | 331 | 0.0 | 0.0 | 0.00 | 0.00 | 0.00 | 91 | 1012.3 |
| 20260906022431 | 25 | 332 | 0.0 | 0.0 | 0.00 | 0.00 | 0.00 | 90 | 1012.6 |
| 20260906021926 | 24 | 332 | 0.0 | 0.0 | 0.00 | 0.00 | 0.00 | 91 | 1012.4 |
| 20260906021426 | 24 | 331 | 0.0 | 0.0 | 0.00 | 0.00 | 0.00 | 91 | 1012.4 |
| 20260906020926 | 25 | 332 | 0.0 | 0.0 | 0.00 | 0.00 | 0.00 | 88 | 1012.0 |
| 20260906020420 | 25 | 332 | 0.0 | 0.0 | 0.00 | 0.00 | 0.00 | 86 | 1012.0 |
| 20260906015915 | 25 | 332 | 0.0 | 0.0 | 0.00 | 0.00 | 0.00 | 87 | 1012.3 |
| 20260906015415 | 25 | 332 | 0.0 | 0.0 | 0.00 | 0.00 | 0.00 | 87 | 1012.2 |
| 20260906014914 | 25 | 332 | 0.0 | 0.0 | 0.00 | 0.00 | 0.00 | 87 | 1012.2 |
| 20260906014414 | 26 | 332 | 0.0 | 0.0 | 0.00 | 0.00 | 0.00 | 86 | 1011.9 |
| 20260906013911 | 26 | 332 | 0.0 | 0.0 | 0.00 | 0.00 | 0.00 | 87 | 1012.3 |
| 20260906013406 | 26 | 332 | 0.0 | 0.0 | 0.00 | 0.00 | 0.00 | 86 | 1012.0 |
| 20260906012902 | -17 | 0.0 | 0.0 | 0.00 | 0.00 | 0.00 | 1012.3 | ||
| 20260906012356 | -17 | 0.0 | 0.0 | 0.00 | 0.00 | 0.00 | 1011.7 | ||
| 20260906011856 | 27 | 332 | 0.0 | 0.0 | 0.00 | 0.00 | 0.00 | 78 | 1011.6 |
| 20260906011351 | 27 | 332 | 0.0 | 0.0 | 0.00 | 0.00 | 0.00 | 78 | 1011.9 |
| 20260906010846 | 27 | 332 | 0.0 | 0.0 | 0.00 | 0.00 | 0.00 | 78 | 1011.6 |
| 20260906010342 | 27 | 332 | 0.0 | 0.0 | 0.00 | 0.00 | 0.00 | 78 | 1011.7 |
| 20260906005838 | 27 | 332 | 0.0 | 0.0 | 0.00 | 0.00 | 0.00 | 79 | 1011.5 |
| 20260906005337 | 27 | 308 | 0.0 | 3.2 | 0.00 | 0.00 | 0.00 | 80 | 1011.7 |
| 20260906004836 | 26 | 339 | 1.6 | 4.8 | 0.00 | 0.00 | 0.00 | 82 | 1011.5 |
| 20260906004336 | 27 | 296 | 1.6 | 1.6 | 0.00 | 0.00 | 0.00 | 82 | 1011.4 |
| 20260906003831 | 27 | 296 | 0.0 | 1.6 | 0.00 | 0.00 | 0.00 | 79 | 1011.4 |
| 20260906003326 | 27 | 296 | 1.6 | 1.6 | 0.00 | 0.00 | 0.00 | 82 | 1011.5 |
| 20260906002822 | 27 | 296 | 1.6 | 1.6 | 0.00 | 0.00 | 0.00 | 82 | 1011.4 |
| 20260906002321 | 27 | 296 | 3.2 | 3.2 | 0.00 | 0.00 | 0.00 | 82 | 1011.5 |
| 20260906001817 | 27 | 69 | 0.0 | 0.0 | 0.00 | 0.00 | 0.00 | 80 | 1011.8 |
| 20260906001312 | 27 | 69 | 0.0 | 0.0 | 0.00 | 0.00 | 0.00 | 80 | 1011.9 |
| 20260906000807 | 27 | 69 | 0.0 | 0.0 | 0.00 | 0.00 | 0.00 | 78 | 1012.2 |
| 20260906000303 | -17 | 0.0 | 0.0 | 0.00 | 0.00 | 0.00 | 1012.0 | ||
| 20260905235756 | -17 | 0.0 | 0.0 | 0.00 | 0.00 | 0.00 | 1012.2 | ||
| 20260905235256 | 28 | 69 | 0.0 | 0.0 | 0.00 | 0.00 | 0.00 | 77 | 1012.4 |
| 20260905234752 | 28 | 69 | 0.0 | 0.0 | 0.00 | 0.00 | 0.00 | 77 | 1012.0 |
| 20260905234247 | 28 | 69 | 0.0 | 0.0 | 0.00 | 0.00 | 0.00 | 78 | 1012.3 |
| 20260905233742 | 29 | 69 | 0.0 | 0.0 | 0.00 | 0.00 | 0.00 | 77 | 1012.5 |
| 20260905233242 | 29 | 69 | 0.0 | 0.0 | 0.00 | 0.00 | 0.00 | 76 | 1012.2 |
| 20260905232736 | 30 | 69 | 0.0 | 0.0 | 0.00 | 0.00 | 0.00 | 75 | 1012.2 |
| 20260905232232 | 30 | 69 | 0.0 | 0.0 | 0.00 | 0.00 | 0.00 | 75 | 1011.9 |
| 20260905231727 | -17 | 0.0 | 0.0 | 0.00 | 0.00 | 0.00 | 1012.2 | ||
| 20260905231223 | 31 | 68 | 0.0 | 0.0 | 0.00 | 0.00 | 0.00 | 66 | 1012.4 |
| 20260905230719 | 31 | 68 | 0.0 | 0.0 | 0.00 | 0.00 | 0.00 | 66 | 1012.4 |
| 20260905230216 | 31 | 68 | 0.0 | 0.0 | 0.00 | 0.00 | 0.00 | 66 | 1012.3 |
| 20260905225716 | 31 | 68 | 0.0 | 0.0 | 0.00 | 0.00 | 0.00 | 63 | 1012.0 |
| 20260905225211 | 31 | 68 | 0.0 | 0.0 | 0.00 | 0.00 | 0.00 | 60 | 1012.2 |
| 20260905224710 | 31 | 68 | 0.0 | 0.0 | 0.00 | 0.00 | 0.00 | 61 | 1011.9 |
| 20260905224206 | 31 | 68 | 0.0 | 0.0 | 0.00 | 0.00 | 0.00 | 60 | 1011.9 |
| 20260905223702 | -17 | 0.0 | 0.0 | 0.00 | 0.00 | 0.00 | 1012.2 | ||
| 20260905223158 | -17 | 0.0 | 0.0 | 0.00 | 0.00 | 0.00 | 1012.0 | ||
| 20260905222654 | 32 | 19 | 1.6 | 1.6 | 0.00 | 0.00 | 0.00 | 55 | 1011.9 |
| 20260905222154 | 32 | 19 | 1.6 | 1.6 | 0.00 | 0.00 | 0.00 | 55 | 1011.8 |
| 20260905221649 | -17 | 0.0 | 0.0 | 0.00 | 0.00 | 0.00 | 1012.2 | ||
| 20260905221146 | -17 | 0.0 | 0.0 | 0.00 | 0.00 | 0.00 | 1012.0 | ||
| 20260905220647 | -17 | 0.0 | 0.0 | 0.00 | 0.00 | 0.00 | 1011.8 | ||
| 20260905220143 | -17 | 0.0 | 0.0 | 0.00 | 0.00 | 0.00 | 1012.0 | ||
| 20260905215642 | 32 | 2 | 1.6 | 1.6 | 0.00 | 0.00 | 0.00 | 54 | 1011.9 |
| 20260905215138 | 32 | 2 | 1.6 | 1.6 | 0.00 | 0.00 | 0.00 | 54 | 1012.0 |
| 20260905214634 | 32 | 333 | 1.6 | 1.6 | 0.00 | 0.00 | 0.00 | 55 | 1012.0 |
| 20260905214129 | 33 | 23 | 4.8 | 4.8 | 0.00 | 0.00 | 0.00 | 54 | 1011.7 |
| 20260905213624 | 33 | 321 | 0.0 | 0.0 | 0.00 | 0.00 | 0.00 | 52 | 1011.9 |
| 20260905213119 | 33 | 321 | 3.2 | 3.2 | 0.00 | 0.00 | 0.00 | 52 | 1011.9 |
| 20260905212615 | 33 | 16 | 3.2 | 3.2 | 0.00 | 0.00 | 0.00 | 51 | 1012.0 |
| 20260905212114 | 33 | 334 | 3.2 | 4.8 | 0.00 | 0.00 | 0.00 | 51 | 1011.8 |
| 20260905211609 | 33 | 334 | 3.2 | 4.8 | 0.00 | 0.00 | 0.00 | 51 | 1012.0 |
| 20260905211105 | -17 | 0.0 | 0.0 | 0.00 | 0.00 | 0.00 | 1011.7 | ||
| 20260905210601 | -17 | 0.0 | 0.0 | 0.00 | 0.00 | 0.00 | 1012.2 | ||
| 20260905210055 | 33 | 29 | 4.8 | 4.8 | 0.00 | 0.00 | 0.00 | 50 | 1012.2 |
| 20260905205555 | 33 | 29 | 4.8 | 4.8 | 0.00 | 0.00 | 0.00 | 50 | 1012.2 |
| 20260905205054 | 33 | 66 | 3.2 | 4.8 | 0.00 | 0.00 | 0.00 | 51 | 1012.2 |
| 20260905204549 | 34 | 32 | 1.6 | 1.6 | 0.00 | 0.00 | 0.00 | 48 | 1012.2 |
| 20260905204044 | 35 | 312 | 1.6 | 3.2 | 0.00 | 0.00 | 0.00 | 48 | 1012.0 |
| 20260905203544 | 34 | 332 | 0.0 | 0.0 | 0.00 | 0.00 | 0.00 | 48 | 1012.3 |
| 20260905203039 | 34 | 329 | 4.8 | 4.8 | 0.00 | 0.00 | 0.00 | 48 | 1012.2 |
| 20260905202535 | 34 | 19 | 1.6 | 3.2 | 0.00 | 0.00 | 0.00 | 48 | 1012.5 |
| 20260905202030 | 34 | 353 | 3.2 | 3.2 | 0.00 | 0.00 | 0.00 | 49 | 1012.4 |
| 20260905201526 | 34 | 19 | 3.2 | 3.2 | 0.00 | 0.00 | 0.00 | 47 | 1012.8 |
| 20260905201025 | 35 | 27 | 0.0 | 0.0 | 0.00 | 0.00 | 0.00 | 47 | 1012.7 |
| 20260905200521 | 35 | 27 | 1.6 | 1.6 | 0.00 | 0.00 | 0.00 | 48 | 1012.7 |
| 20260905200021 | 35 | 299 | 3.2 | 3.2 | 0.00 | 0.00 | 0.00 | 46 | 1012.8 |
| 20260905195520 | 35 | 241 | 0.0 | 1.6 | 0.00 | 0.00 | 0.00 | 49 | 1012.7 |
| 20260905195016 | 35 | 315 | 3.2 | 3.2 | 0.00 | 0.00 | 0.00 | 46 | 1012.8 |
| 20260905194516 | 35 | 4 | 1.6 | 1.6 | 0.00 | 0.00 | 0.00 | 45 | 1013.0 |
| 20260905194015 | 35 | 250 | 0.0 | 0.0 | 0.00 | 0.00 | 0.00 | 49 | 1013.0 |
| 20260905193510 | 35 | 279 | 1.6 | 1.6 | 0.00 | 0.00 | 0.00 | 50 | 1013.0 |
| 20260905193005 | 35 | 80 | 1.6 | 3.2 | 0.00 | 0.00 | 0.00 | 45 | 1013.1 |
| 20260905192500 | 34 | 31 | 1.6 | 3.2 | 0.00 | 0.00 | 0.00 | 50 | 1013.2 |
| 20260905191956 | 35 | 47 | 1.6 | 3.2 | 0.00 | 0.00 | 0.00 | 48 | 1013.5 |
| 20260905191455 | 35 | 274 | 0.0 | 1.6 | 0.00 | 0.00 | 0.00 | 47 | 1013.2 |
| 20260905190954 | 34 | 63 | 0.0 | 1.6 | 0.00 | 0.00 | 0.00 | 49 | 1013.1 |
| 20260905190452 | 33 | 36 | 3.2 | 3.2 | 0.00 | 0.00 | 0.00 | 47 | 1013.3 |
| 20260905185951 | 35 | 326 | 4.8 | 4.8 | 0.00 | 0.00 | 0.00 | 47 | 1013.3 |
| 20260905185447 | 34 | 296 | 1.6 | 3.2 | 0.00 | 0.00 | 0.00 | 46 | 1013.5 |
| 20260905184945 | 35 | 331 | 1.6 | 6.4 | 0.00 | 0.00 | 0.00 | 44 | 1013.6 |
| 20260905184440 | 35 | 265 | 1.6 | 4.8 | 0.00 | 0.00 | 0.00 | 52 | 1013.5 |
| 20260905183938 | 35 | 298 | 3.2 | 4.8 | 0.00 | 0.00 | 0.00 | 44 | 1013.7 |
| 20260905183433 | 35 | 218 | 3.2 | 6.4 | 0.00 | 0.00 | 0.00 | 47 | 1013.5 |
| 20260905182929 | 35 | 153 | 3.2 | 6.4 | 0.00 | 0.00 | 0.00 | 51 | 1013.8 |
| 20260905182427 | 35 | 180 | 3.2 | 6.4 | 0.00 | 0.00 | 0.00 | 50 | 1014.0 |
| 20260905181923 | 35 | 202 | 0.0 | 1.6 | 0.00 | 0.00 | 0.00 | 44 | 1013.9 |
| 20260905181418 | 35 | 184 | 1.6 | 4.8 | 0.00 | 0.00 | 0.00 | 50 | 1014.0 |
| 20260905180917 | 35 | 186 | 4.8 | 6.4 | 0.00 | 0.00 | 0.00 | 48 | 1014.0 |
| 20260905180412 | 35 | 250 | 3.2 | 4.8 | 0.00 | 0.00 | 0.00 | 47 | 1014.0 |
| 20260905175912 | 34 | 148 | 0.0 | 1.6 | 0.00 | 0.00 | 0.00 | 44 | 1014.2 |
| 20260905175412 | 34 | 172 | 3.2 | 6.4 | 0.00 | 0.00 | 0.00 | 49 | 1014.1 |
| 20260905174907 | 34 | 186 | 3.2 | 4.8 | 0.00 | 0.00 | 0.00 | 53 | 1014.3 |
| 20260905174403 | 33 | 227 | 1.6 | 4.8 | 0.00 | 0.00 | 0.00 | 54 | 1014.2 |
| 20260905173858 | 33 | 146 | 4.8 | 6.4 | 0.00 | 0.00 | 0.00 | 47 | 1014.1 |
| 20260905173354 | 33 | 176 | 1.6 | 6.4 | 0.00 | 0.00 | 0.00 | 50 | 1014.2 |
| 20260905172849 | 33 | 221 | 3.2 | 6.4 | 0.00 | 0.00 | 0.00 | 50 | 1014.3 |
| 20260905172347 | 33 | 178 | 3.2 | 3.2 | 0.00 | 0.00 | 0.00 | 51 | 1014.5 |
| 20260905171843 | 32 | 277 | 3.2 | 4.8 | 0.00 | 0.00 | 0.00 | 52 | 1014.5 |
| 20260905171340 | 32 | 121 | 3.2 | 9.7 | 0.00 | 0.00 | 0.00 | 52 | 1014.5 |
| 20260905170836 | 32 | 156 | 3.2 | 4.8 | 0.00 | 0.00 | 0.00 | 52 | 1014.4 |
| 20260905170332 | 32 | 115 | 6.4 | 6.4 | 0.00 | 0.00 | 0.00 | 51 | 1014.9 |
| 20260905165831 | 32 | 181 | 1.6 | 3.2 | 0.00 | 0.00 | 0.00 | 47 | 1014.6 |
| 20260905165327 | 32 | 271 | 3.2 | 11.3 | 0.00 | 0.00 | 0.00 | 51 | 1014.7 |
| 20260905164826 | 32 | 125 | 3.2 | 3.2 | 0.00 | 0.00 | 0.00 | 49 | 1014.7 |
| 20260905164321 | 32 | 247 | 1.6 | 4.8 | 0.00 | 0.00 | 0.00 | 54 | 1014.9 |
| 20260905163817 | 32 | 136 | 3.2 | 4.8 | 0.00 | 0.00 | 0.00 | 51 | 1015.0 |
| 20260905163313 | 32 | 254 | 1.6 | 6.4 | 0.00 | 0.00 | 0.00 | 55 | 1014.8 |
| 20260905162809 | 32 | 232 | 4.8 | 6.4 | 0.00 | 0.00 | 0.00 | 59 | 1014.8 |
| 20260905162309 | 32 | 242 | 3.2 | 9.7 | 0.00 | 0.00 | 0.00 | 55 | 1014.7 |
| 20260905161803 | 32 | 157 | 3.2 | 6.4 | 0.00 | 0.00 | 0.00 | 54 | 1015.0 |
| 20260905161302 | 32 | 223 | 3.2 | 4.8 | 0.00 | 0.00 | 0.00 | 57 | 1014.8 |
| 20260905160801 | 31 | 162 | 3.2 | 4.8 | 0.00 | 0.00 | 0.00 | 57 | 1014.8 |
| 20260905160301 | 31 | 172 | 6.4 | 9.7 | 0.00 | 0.00 | 0.00 | 58 | 1014.7 |
| 20260905155756 | 31 | 201 | 3.2 | 4.8 | 0.00 | 0.00 | 0.00 | 58 | 1014.9 |
| 20260905155254 | 31 | 207 | 6.4 | 6.4 | 0.00 | 0.00 | 0.00 | 56 | 1015.1 |
| 20260905154749 | 31 | 152 | 3.2 | 4.8 | 0.00 | 0.00 | 0.00 | 57 | 1015.1 |
| 20260905154245 | 31 | 167 | 1.6 | 6.4 | 0.00 | 0.00 | 0.00 | 55 | 1015.2 |
| 20260905153740 | 30 | 184 | 3.2 | 9.7 | 0.00 | 0.00 | 0.00 | 59 | 1015.3 |
| 20260905153236 | 30 | 160 | 1.6 | 6.4 | 0.00 | 0.00 | 0.00 | 59 | 1015.5 |
| 20260905152731 | 30 | 139 | 3.2 | 4.8 | 0.00 | 0.00 | 0.00 | 61 | 1015.4 |
| 20260905152230 | 30 | 161 | 3.2 | 11.3 | 0.00 | 0.00 | 0.00 | 58 | 1015.5 |
| 20260905151730 | 30 | 138 | 6.4 | 9.7 | 0.00 | 0.00 | 0.00 | 60 | 1015.4 |
| 20260905151227 | 30 | 121 | 3.2 | 4.8 | 0.00 | 0.00 | 0.00 | 59 | 1015.5 |
| 20260905150726 | 29 | 156 | 4.8 | 4.8 | 0.00 | 0.00 | 0.00 | 61 | 1015.6 |
| 20260905150226 | 28 | 148 | 1.6 | 4.8 | 0.00 | 0.00 | 0.00 | 63 | 1015.4 |
| 20260905145723 | 27 | 129 | 6.4 | 6.4 | 0.00 | 0.00 | 0.00 | 66 | 1015.7 |
| 20260905145218 | 26 | 101 | 1.6 | 4.8 | 0.00 | 0.00 | 0.00 | 70 | 1015.5 |
| 20260905144717 | 26 | 115 | 6.4 | 9.7 | 0.00 | 0.00 | 0.00 | 68 | 1015.6 |
| 20260905144212 | 26 | 141 | 4.8 | 6.4 | 0.00 | 0.00 | 0.00 | 68 | 1015.6 |
| 20260905143711 | 27 | 133 | 1.6 | 6.4 | 0.00 | 0.00 | 0.00 | 70 | 1015.8 |
| 20260905143206 | 28 | 129 | 6.4 | 9.7 | 0.00 | 0.00 | 0.00 | 67 | 1015.7 |
| 20260905142704 | 28 | 112 | 3.2 | 17.7 | 0.00 | 0.00 | 0.00 | 68 | 1015.9 |
| 20260905142205 | 27 | 92 | 3.2 | 9.7 | 0.00 | 0.00 | 0.00 | 70 | 1016.1 |
| 20260905141700 | 27 | 177 | 3.2 | 4.8 | 0.00 | 0.00 | 0.00 | 72 | 1015.8 |
| 20260905141156 | 26 | 118 | 4.8 | 6.4 | 0.00 | 0.00 | 0.00 | 72 | 1015.8 |
| 20260905140651 | 26 | 102 | 4.8 | 4.8 | 0.00 | 0.00 | 0.00 | 75 | 1015.8 |
| 20260905140151 | 26 | 63 | 3.2 | 9.7 | 0.00 | 0.00 | 0.00 | 75 | 1016.0 |
| 20260905135646 | 25 | 126 | 8.0 | 11.3 | 0.00 | 0.00 | 0.00 | 76 | 1015.8 |
| 20260905135141 | 25 | 100 | 4.8 | 4.8 | 0.00 | 0.00 | 0.00 | 79 | 1015.8 |
| 20260905134636 | 25 | 70 | 3.2 | 4.8 | 0.00 | 0.00 | 0.00 | 78 | 1015.8 |
| 20260905134134 | 24 | 69 | 8.0 | 12.9 | 0.00 | 0.00 | 0.00 | 79 | 1015.8 |
| 20260905133630 | 23 | 76 | 6.4 | 9.7 | 0.00 | 0.00 | 0.00 | 81 | 1016.1 |
| 20260905133130 | 23 | 11 | 4.8 | 9.7 | 0.00 | 0.00 | 0.00 | 81 | 1016.2 |
| 20260905132630 | 22 | 50 | 6.4 | 11.3 | 0.00 | 0.00 | 0.00 | 83 | 1016.2 |
| 20260905132125 | 22 | 66 | 6.4 | 17.7 | 0.00 | 0.00 | 0.00 | 83 | 1016.2 |
| 20260905131620 | 22 | 28 | 11.3 | 16.1 | 0.00 | 0.00 | 0.00 | 83 | 1016.0 |
| 20260905131115 | 22 | 91 | 8.0 | 11.3 | 0.00 | 0.00 | 0.00 | 84 | 1015.9 |
| 20260905130615 | 22 | 65 | 9.7 | 14.5 | 0.00 | 0.00 | 0.00 | 83 | 1016.2 |
| 20260905130114 | 23 | 70 | 8.0 | 11.3 | 0.00 | 0.00 | 0.00 | 83 | 1016.1 |
| 20260905125609 | 23 | 88 | 8.0 | 11.3 | 0.00 | 0.00 | 0.00 | 82 | 1015.9 |
| 20260905125104 | 23 | 48 | 11.3 | 14.5 | 0.00 | 0.00 | 0.00 | 82 | 1015.8 |
| 20260905124601 | 23 | 43 | 8.0 | 14.5 | 0.00 | 0.00 | 0.00 | 82 | 1016.1 |
| 20260905124057 | 23 | 38 | 4.8 | 12.9 | 0.00 | 0.00 | 0.00 | 82 | 1016.2 |
| 20260905123551 | 23 | 26 | 3.2 | 4.8 | 0.00 | 0.00 | 0.00 | 82 | 1015.8 |
| 20260905123049 | 23 | 57 | 3.2 | 3.2 | 0.00 | 0.00 | 0.00 | 83 | 1015.5 |
| 20260905122548 | 23 | 86 | 3.2 | 4.8 | 0.00 | 0.00 | 0.00 | 83 | 1015.4 |
| 20260905122043 | 23 | 88 | 3.2 | 4.8 | 0.00 | 0.00 | 0.00 | 82 | 1015.4 |
| 20260905121544 | 23 | 59 | 3.2 | 4.8 | 0.00 | 0.00 | 0.00 | 82 | 1015.5 |
| 20260905121039 | 23 | 76 | 6.4 | 11.3 | 0.00 | 0.00 | 0.00 | 82 | 1015.5 |
| 20260905120538 | 23 | 90 | 4.8 | 11.3 | 0.00 | 0.00 | 0.00 | 82 | 1015.4 |
| 20260905120033 | 23 | 81 | 4.8 | 11.3 | 0.00 | 0.00 | 0.00 | 82 | 1015.4 |
| 20260905115532 | 23 | 68 | 4.8 | 6.4 | 0.00 | 0.00 | 0.00 | 82 | 1015.4 |
| 20260905115027 | 23 | 64 | 8.0 | 11.3 | 0.00 | 0.00 | 0.00 | 83 | 1015.1 |
| 20260905114526 | 23 | 64 | 3.2 | 9.7 | 0.00 | 0.00 | 0.00 | 83 | 1015.1 |
| 20260905114026 | 23 | 73 | 6.4 | 9.7 | 0.00 | 0.00 | 0.00 | 83 | 1015.1 |